TimeMST,TemperatureF,Dew PointF,Humidity,Sea Level PressureIn,VisibilityMPH,Wind Direction,Wind SpeedMPH,Gust SpeedMPH,PrecipitationIn,Events,Conditions,WindDirDegrees,DateUTC
12:53 AM,-5.1,-9.9,80,30.65,8.0,NW,6.9,-,N/A,,Clear,310,2013-01-19 07:53:00
1:19 AM,-5.8,-11.2,77,30.32,10.0,Calm,Calm,-,N/A,,Scattered Clouds,0,2013-01-19 08:19:00
1:29 AM,-4.0,-9.4,78,30.33,10.0,Calm,Calm,-,N/A,,Mostly Cloudy,0,2013-01-19 08:29:00
1:53 AM,-4.0,-9.0,79,30.67,10.0,East,3.5,-,N/A,,Mostly Cloudy,80,2013-01-19 08:53:00
2:06 AM,-7.6,-13.0,77,30.36,9.0,Calm,Calm,-,N/A,,Scattered Clouds,0,2013-01-19 09:06:00
2:53 AM,-7.1,-13.0,75,30.69,10.0,Calm,Calm,-,N/A,,Clear,0,2013-01-19 09:53:00
3:53 AM,-9.0,-14.1,79,30.71,10.0,Calm,Calm,-,N/A,,Clear,0,2013-01-19 10:53:00
4:53 AM,-11.0,-18.0,71,30.77,10.0,Calm,Calm,-,N/A,,Clear,0,2013-01-19 11:53:00
5:53 AM,-9.9,-17.0,71,30.81,10.0,Calm,Calm,-,N/A,,Clear,0,2013-01-19 12:53:00
6:53 AM,-11.0,-18.0,71,30.82,10.0,Calm,Calm,-,N/A,,Clear,0,2013-01-19 13:53:00
7:53 AM,-13.0,-20.0,71,30.87,10.0,Calm,Calm,-,N/A,,Clear,0,2013-01-19 14:53:00
8:53 AM,-6.0,-11.0,79,30.88,10.0,Calm,Calm,-,N/A,,Clear,0,2013-01-19 15:53:00
9:53 AM,-0.0,-4.0,83,30.86,10.0,Calm,Calm,-,N/A,,Clear,0,2013-01-19 16:53:00
10:53 AM,6.1,1.9,83,30.82,10.0,Calm,Calm,-,N/A,,Clear,0,2013-01-19 17:53:00
11:53 AM,10.0,3.0,73,30.79,10.0,SSW,4.6,-,N/A,,Clear,210,2013-01-19 18:53:00
12:53 PM,12.9,7.0,77,30.74,10.0,Calm,Calm,-,N/A,,Unknown,0,2013-01-19 19:53:00
1:53 PM,17.1,8.1,68,30.69,10.0,Calm,Calm,-,N/A,,Clear,0,2013-01-19 20:53:00
2:53 PM,18.0,10.0,71,30.69,10.0,Calm,Calm,-,N/A,,Clear,0,2013-01-19 21:53:00
3:53 PM,16.0,8.1,71,30.70,10.0,Calm,Calm,-,0.00,,Clear,0,2013-01-19 22:53:00
4:53 PM,12.9,5.0,71,30.72,10.0,SSW,8.1,-,0.00,,Clear,210,2013-01-19 23:53:00
5:53 PM,6.1,-0.0,76,30.76,10.0,Calm,Calm,-,N/A,,Clear,0,2013-01-20 00:53:00
6:53 PM,5.0,-0.0,80,30.77,10.0,NW,5.8,-,N/A,,Clear,310,2013-01-20 01:53:00
7:53 PM,1.0,-2.9,83,30.81,10.0,Calm,Calm,-,N/A,,Clear,0,2013-01-20 02:53:00
8:53 PM,-0.0,-4.0,83,30.77,10.0,Calm,Calm,-,N/A,,Clear,0,2013-01-20 03:53:00
9:53 PM,-0.9,-5.1,83,30.75,10.0,Calm,Calm,-,N/A,,Clear,0,2013-01-20 04:53:00
10:53 PM,-0.9,-6.0,79,30.71,10.0,Calm,Calm,-,N/A,,Clear,0,2013-01-20 05:53:00
11:53 PM,-5.1,-9.0,83,30.71,10.0,Calm,Calm,-,N/A,,Clear,0,2013-01-20 06:53:00